This demonstration page uses our WeatherBlox Daily Observations layout. Learn more.

Left ArrowRight Arrow

44.8408, -93.29828

Hourly Observations for March 14, 2022

Temp ( °F °C ) Dew Point ( °F °C ) Humidity (%) Winds ( mph kmh ) Pressure ( in mb ) Visibility ( mi km ) Precip ( " mm )
12:53 am 00:53 Cloudy 35 1.7 27 -2.8 72 72 Calm 30.05 1018 10 16 0.00 0.00
1:53 am 01:53 Cloudy 35 1.7 27 -2.8 72 72 E 5 7 30.04 1017 10 16 0.00 0.00
2:53 am 02:53 Cloudy 35 1.7 25 -3.9 67 67 NE 12 19 30.02 1017 10 16 0.00 0.00
3:53 am 03:53 Cloudy 35 1.7 23 -5 61 61 NE 8 13 30.03 1017 10 16 0.00 0.00
4:53 am 04:53 Cloudy 35 1.7 22 -5.6 59 59 NE 12 19 30.01 1016 10 16 0.00 0.00
5:53 am 05:53 Cloudy with Light Rain 33 0.6 27 -2.8 78 78 NNE 14 22 30.02 1017 10 16 0.00 0.00
6:11 am 06:11 Cloudy with Light Freezing Rain 33 0.6 28 -2.2 82 82 NNE 13 20 30.04 1017 9 14 0.00 0.00
6:22 am 06:22 Cloudy with Light Freezing Rain 33 0.6 29 -1.7 85 85 NNE 14 22 30.04 1017 9 14 0.00 0.00
6:25 am 06:25 Cloudy 33 0.6 29 -1.7 85 85 NNE 15 24 30.04 1017 10 16 0.00 0.00
6:53 am 06:53 Cloudy 33 0.6 30 -1.1 89 89 NE 12 19 30.03 1017 10 16 0.00 0.00
7:05 am 07:05 Cloudy 33 0.6 30 -1.1 89 89 NE 12 19 30.05 1018 10 16 0.00 0.00
7:28 am 07:28 Mostly Cloudy 33 0.6 30 -1.1 89 89 NNE 13 20 30.06 1018 10 16 0.00 0.00
7:53 am 07:53 Cloudy with Drizzle 34 1.1 31 -0.6 89 89 N 10 17 30.06 1018 10 16 0.00 0.00
8:31 am 08:31 Cloudy with Light Wintry Mix 33 0.6 29 -1.7 85 85 NNE 10 17 30.10 1019 10 16 0.00 0.00
8:38 am 08:38 Cloudy with Light Wintry Mix 32 0 29 -1.7 88 88 NNE 12 19 30.11 1019 7 11 0.00 0.00
8:46 am 08:46 Cloudy with Light Wintry Mix 32 0 29 -1.7 88 88 NNE 10 17 30.11 1019 2 2 0.00 0.00
8:50 am 08:50 Cloudy with Light Wintry Mix 32 0 28 -2 87 87 NNE 10 17 30.11 1019 1 2 0.00 0.00
8:53 am 08:53 Cloudy with Light Wintry Mix 32 0 29 -1.7 88 88 NNE 10 17 30.09 1019 1 1 0.00 0.00
9:03 am 09:03 Cloudy with Wintry Mix 31 -0.6 28 -2.2 89 89 NE 10 17 30.12 1020 1 1 0.02 0.51
9:11 am 09:11 Cloudy with Light Wintry Mix 31 -0.6 29 -1.7 92 92 NNE 12 19 30.12 1020 1 1 0.02 0.51
9:19 am 09:19 Cloudy with Light Wintry Mix 31 -0.6 29 -1.7 92 92 NE 10 17 30.12 1020 1 2 0.02 0.51
9:34 am 09:34 Cloudy with Light Snow 31 -0.6 29 -1.7 92 92 NNE 12 19 30.12 1020 1 2 0.04 1.02
9:44 am 09:44 Cloudy with Light Snow 32 0 29 -1.7 88 88 NNE 12 19 30.13 1020 2 2 0.04 1.02
9:48 am 09:48 Cloudy with Light Snow 30 -1 28 -2 93 93 NNE 13 20 30.13 1020 3 5 0.04 1.02
9:53 am 09:53 Cloudy with Light Snow 31 -0.6 29 -1.7 92 92 NNE 13 20 30.11 1020 4 6 0.05 1.27
10:10 am 10:10 Cloudy with Light Wintry Mix 32 0 29 -1.7 88 88 NNE 14 22 30.14 1021 7 11 0.00 0.00
10:37 am 10:37 Cloudy with Light Freezing Drizzle 32 0 29 -1.7 88 88 NNE 14 22 30.15 1021 8 13 0.00 0.00
10:53 am 10:53 Cloudy with Light Freezing Drizzle 32 0 29 -1.7 88 88 NE 13 20 30.13 1020 10 16 0.00 0.00
11:36 am 11:36 Cloudy with Light Freezing Drizzle 32 0 28 -2.2 85 85 NE 12 19 30.17 1022 10 16 0.00 0.00
11:46 am 11:46 Cloudy with Drizzle 33 0.6 28 -2.2 82 82 NE 12 19 30.17 1022 10 16 0.00 0.00
11:53 am 11:53 Cloudy with Drizzle 33 0.6 29 -1.7 85 85 NNE 14 22 30.16 1021 10 16 0.00 0.00
12:53 pm 12:53 Cloudy 35 1.7 30 -1.1 82 82 NE 7 11 30.16 1022 10 16 0.01 0.25
1:09 pm 13:09 Cloudy 36 2.2 30 -1.1 79 79 NNE 7 11 30.18 1022 10 16 0.00 0.00
1:53 pm 13:53 Mostly Cloudy 37 2.8 30 -1.1 76 76 N 9 15 30.16 1022 10 16 0.00 0.00
2:53 pm 14:53 Cloudy 38 3.3 29 -1.7 70 70 N 7 11 30.18 1022 10 16 0.00 0.00
3:53 pm 15:53 Cloudy 37 2.8 27 -2.8 67 67 N 12 19 30.19 1022 10 16 0.00 0.00
4:53 pm 16:53 Cloudy 37 2.8 26 -3.3 65 65 NNE 10 17 30.21 1023 10 16 0.00 0.00
5:53 pm 17:53 Mostly Cloudy 38 3.3 25 -3.9 60 60 N 6 9 30.22 1023 10 16 0.00 0.00
6:53 pm 18:53 Mostly Sunny 38 3.3 25 -3.9 60 60 ENE 3 6 30.23 1024 10 16 0.00 0.00
7:53 pm 19:53 Mostly Clear 36 2.2 25 -3.9 64 64 N 3 6 30.25 1024 10 16 0.00 0.00
8:53 pm 20:53 Mostly Clear 33 0.6 24 -4.4 70 70 NNW 5 7 30.27 1025 10 16 0.00 0.00
9:53 pm 21:53 Partly Cloudy 34 1.1 25 -3.9 70 70 NNW 5 7 30.29 1026 10 16 0.00 0.00
10:53 pm 22:53 Partly Cloudy 31 -0.6 24 -4.4 76 76 Calm 30.29 1026 10 16 0.00 0.00
11:53 pm 23:53 Partly Cloudy 32 0 24 -4.4 73 73 Calm 30.27 1025 10 16 0.00 0.00

Powered by AerisWeather